Home > Time Zones > World Clock > Weather > Norway > Gran > Past weeks

Flag for Norway Weather past 2 weeks in Gran, Norway

Now
54 °F

Clear.


Feels Like: 51 °F
Forecast: 45 / 49 °F
Wind: 8 mph from Northeast

Location: Oslo Gardermoen Airport

Current Time: Sep 1, 2015 at 5:00:38 AM

Latest Report: Sep 1, 2015 at 4:20 AM


Visibility: 10 mi

Pressure: 29.92 "Hg

Humidity: 82%

Dew point: 48 °F

Location of GranLocation

Historic Weather in Gran — Graph

°F

Gran temperature yesterday

Maximum temperature yesterday: 70 °F (at 4:20 PM)
Minimum temperature yesterday: 48 °F (at 5:50 AM)
Average temperature yesterday: 57 °F

Past Weeks' High & Low Weather Summary

 TemperatureHumidityPressure
High75 °F (Aug 23, 3:50 PM)100% (Aug 26, 7:50 PM)30.36 "Hg (Aug 26, 7:50 PM)
Low43 °F (Aug 22, 5:50 AM)31% (Aug 19, 4:20 PM)29.47 "Hg (Aug 27, 5:50 PM)
Average60 °F69%30.05 "Hg
* Reported Aug 17 3:20 AM — Sep 1 3:50 AM, Gran, Weather by CustomWeather, © 2015

Note: Actual official high and low records may vary slightly from our data, if they occured in-between our weather recording intervals... More about our weather records

Advertising

Gran weather history for previous 24 hours

 ConditionsComfort  
Time TempWeatherWind HumidityBarometerVisibility
3:50 AM
Tue, Sep 1
54 °FClear.8 mph82%29.92 "Hg10 mi
3:20 AM54 °FClear.7 mph88%29.92 "Hg10 mi
2:50 AM54 °FClear.7 mph88%29.95 "Hg10 mi
2:20 AM54 °FClear.6 mph88%29.95 "Hg10 mi
1:50 AM52 °FClear.3 mph94%29.95 "Hg10 mi
1:20 AM54 °FClear.5 mph88%29.95 "Hg10 mi
12:50 AM54 °FClear.5 mph88%29.95 "Hg10 mi
12:20 AM54 °FClear.2 mph88%29.98 "Hg10 mi
11:20 PM
Mon, Aug 31
54 °FClear.3 mph88%29.98 "Hg10 mi
10:50 PM55 °FClear.3 mph88%29.98 "Hg10 mi
10:20 PM57 °FClear.2 mph82%29.98 "Hg10 mi
9:50 PM57 °FClear.3 mph77%29.98 "Hg10 mi
9:20 PM57 °FSunny.2 mph82%29.98 "Hg10 mi
8:50 PM61 °FSunny.3 mph68%29.98 "Hg10 mi
8:20 PM61 °FSunny.2 mph68%29.98 "Hg10 mi
7:50 PM63 °FPartly sunny.No wind64%29.98 "HgN/A
7:20 PM63 °FPartly sunny.1 mph64%29.98 "HgN/A
6:50 PM63 °FPartly sunny.2 mph64%29.98 "HgN/A
6:20 PM64 °FBroken clouds.2 mph56%29.98 "HgN/A
5:50 PM66 °FPassing clouds.No wind49%29.98 "HgN/A
5:20 PM68 °FSunny.1 mph43%29.98 "Hg10 mi
4:50 PM68 °FScattered clouds.3 mph40%29.98 "HgN/A
4:20 PM70 °FPassing clouds.3 mph43%30.01 "HgN/A
3:50 PM68 °FPassing clouds.5 mph49%30.01 "HgN/A
3:20 PM66 °FScattered clouds.2 mph49%30.01 "HgN/A
2:50 PM66 °FScattered clouds.6 mph52%30.01 "HgN/A
2:20 PM66 °FScattered clouds.2 mph52%30.04 "HgN/A
1:50 PM66 °FSunny.3 mph49%30.04 "Hg10 mi
1:20 PM64 °FSunny.2 mph52%30.04 "Hg10 mi
12:50 PM63 °FSunny.3 mph59%30.04 "Hg10 mi
12:20 PM63 °FScattered clouds.1 mph64%30.04 "HgN/A
11:50 AM61 °FScattered clouds.2 mph72%30.04 "HgN/A
11:20 AM61 °FScattered clouds.1 mph77%30.04 "HgN/A
10:50 AM59 °FScattered clouds.2 mph82%30.04 "HgN/A
10:20 AM55 °FPartly sunny.1 mph88%30.04 "HgN/A
9:50 AM54 °FBroken clouds.1 mph94%30.04 "HgN/A
9:20 AM52 °FFog.2 mph94%30.04 "HgN/A
8:50 AM50 °FCool.6 mph94%30.04 "Hg1 mi
8:20 AM50 °FFog.3 mph94%30.04 "Hg1 mi
7:50 AM50 °FFog.2 mph94%30.04 "Hg0 mi
7:20 AM50 °FFog.3 mph94%30.04 "Hg1 mi
6:50 AM48 °FCool.3 mph100%30.04 "Hg1 mi
6:20 AM48 °FCool.1 mph100%30.04 "Hg0 mi
5:50 AM48 °FCool.2 mph100%30.04 "Hg1 mi
5:20 AM50 °FCool.No wind94%30.04 "Hg1 mi
Weather by CustomWeather, © 2015

See weather overviewHow to use our weather pages